Location: Fort Wayne
(41.1310°N, 85.1290°W)
Time: 08:26:30
(UTC-05:00)

Cosmos 1000 Rocket - Visible Passes

Search period start: 22 February 2017 00:00
Search period end: 04 March 2017 00:00
Orbit: 954 x 992 km, 82.9° (Epoch: 22 February)

Date Brightness Start Highest point End Pass type
(mag) Time Alt. Az. Time Alt. Az. Time Alt. Az.
26 Feb 6.8 21:48:46 10° N 21:49:08 12° N 21:49:08 12° N visible
27 Feb 6.8 22:13:12 10° N 22:13:57 14° N 22:13:57 14° N visible
28 Feb 6.6 20:53:49 10° NNE 20:54:08 11° NNE 20:54:08 11° NNE visible
28 Feb 6.9 22:37:56 10° NNW 22:38:45 14° NNW 22:38:45 14° NNW visible
01 Mar 6.4 21:17:39 10° N 21:18:59 16° NNE 21:18:59 16° NNE visible
01 Mar 7.1 23:03:01 10° NNW 23:03:38 13° NNW 23:03:38 13° NNW visible
02 Mar 6.3 21:41:58 10° N 21:43:52 21° N 21:43:52 21° N visible
03 Mar 6.4 20:23:02 10° NNE 20:24:08 13° NE 20:24:08 13° NE visible
03 Mar 6.3 22:06:36 10° N 22:08:46 23° NNW 22:08:46 23° NNW visible
